Tracking 22438 objects as of 25-Feb-2021
HD Live streaming from Space Station
objects crossing your sky now

DELTA 1 DEB

Track DELTA 1 DEB now!
10-day predictions


NORAD ID: 21296
Int'l Code: 1975-052AH
Perigee: 1,050.9 km
Apogee: 1,411.4 km
Inclination: 99.6 °
Period: 109.9 minutes
Semi major axis: 7602 km
RCS: 0.0736 m2 (small)
Launch date: June 12, 1975
Source: United States (US)
Launch site: AIR FORCE WESTERN TEST RANGE (AFWTR)

Note: This is SATELLITE DEBRIS
aabbcc
Your satellite tracking list
Your tracking list is empty




NASA's NSSDC Master Catalog

Two Line Element Set (TLE):
1 21296U 75052AH  21055.23610851  .00000151  00000-0  47118-3 0  9999
2 21296  99.5947  37.6912 0237116  89.4963 288.7286 13.09784753422389
Source of the keplerian elements: AFSPC